Location: Molveno
(46.1500°N, 10.9667°E)
Time: 16:53:40
(UTC+00:00)

Cosmos 1624 Rocket - Pass Details

Date: 05 July 2020
Orbit: 758 x 783 km, 74.0° (Epoch: 10 August)

Event Time Altitude Azimuth Distance (km) Brightness Sun altitude
Rises 22:07:15 0° 339° (NNW) 3,247 8.9 -19.2°
Reaches altitude 10° 22:09:39 10° 342° (NNW) 2,312 7.7 -19.3°
Maximum altitude 22:14:54 73° 67° (ENE) 799 4.0 -19.6°
Enters shadow 22:16:54 38° 143° (SE) 1,153 4.4 -19.7°
